sat.trackr.live / text

‹ back to catalog

STARLINK-32042

NORAD 60108 · 2024-117T

PAYLOAD ACTIVE UNKNOWN

§ Identity

Operator
Country
US
Launch date
2024-06-23
Launch site
AFETR
Launch vehicle
Mass (kg)
RCS (m²)

Purposes: comms

External: N2YO · Heavens-Above · Gunter

§ Orbital elements

Epoch: 2026-09-21T03:17:13.215264Z

Period
93.85 min
Inclination
53.1600°
Eccentricity
0.0001109
Mean motion
15.34433047 rev/d
Perigee alt
461.8 km
Apogee alt
463.4 km
Semi-major
6,840.7 km
B*
8.8740e-5
RAAN
206.9257°
Arg perigee
105.3669°
Mean anomaly
254.7456°
Rev number
12,684

§ Raw data

STARLINK-320421 60108U 24117T   26264.13695851  .00002626  00000+0  88740-4 0  99942 60108  53.1600 206.9257 0001109 105.3669 254.7456 15.34433047126842

JSON: /api/v1/satellites/60108 · /tle

For live sub-satellite position, see the globe view (requires WebGL).

§ Visibility from observer

Set your observer location to see the next 7 days of passes ≥ 10°. The values pass through the URL so the page stays shareable.

No JS? Fill the form by hand. The geolocation button needs JavaScript.